SCP
0 0 0 0 0 0 0 0 0 0 0 0 0 0 0 0 0 0 0 0 0 0 0 0 0 0 0 0 -0 -0 -0 -0 0 0 0 0 0 0
0 0 0 0 0 0 0 0 0 0 0 0 0 0 0 0 0 0 0 0 0 0 0 0 0 0 0 0 0 -0 -0 0 0 0 0 0 0 0
0 0 0 0 0 0 0 0 0 0 0 0 0 0 0 0 0 0 0 0 0 0 0 0 0 0 0 0 0 0 0 0 0 0 0 0 0 0
0 0 0 0 0 0 0 0 0 0 0 0 0 0 0 0 0 0 0 0 0 0 0 0 0 0 0 0 0 0 0 0 0 0 0 0 0 0
0 0 0 0 0 0 0 0 0 0 0 0 0 0 0 0 0 0 0 0 0 0 0 0 0 0 0 0 0 0 0 0 0 0 0 0 0 0
0 0 0 0 0 0 0 0 0 0 0 0 0 0 0 0 0 0 0 0 0 0 0 0 0 0 0 0 0 0 0 0 0 0 0 0 0 0
0 0 0 0 0 0 0 0 0 0 0 0 0 0 0 0 0 0 0 0 0 0 0 0 0 0 0 0 0 0 0 0 0 0 0 0 0 0
0 0 0 0 0 0 0 0 0 0 0 0 0 0 0 0 0 0 0 0 0 0 0 0 0 0 0 0 0 0 0 0 0 0 0 0 0 0
0 0 0 0 0 0 0 0 0 0 0 0 0 0 0 0 0 0 0 0 0 0 0 0 0 0 0 0 0 0 0 0 0 0 0 0 0 0
0 0 0 0 0 0 0 0 0 0 0 0 0 0 0 0 0 0 0 0 0 0 0 0 0 0 0 0 0 0 0 0 0 0 0 0 0 0
0 0 0 0 0 0 0 0 0 0 0 0 0 0 0 0 0 0 0 0 0 0 0 0 0 0 0 0 0 0 0 0 0 0 0 0 0 0
0 0 0 0 0 0 0 0 0 0 0 0 0 0 0 0 0 0 0 0 0 0 0 0 0 0 0 0 0 0 0 0 0 0 0 0 0 0
0 0 0 0 0 0 0 0 0 0 0 0 0 0 0 0 0 0 0 0 0 0 0 0 0 0 0 0 0 0 0 0 0 0 0 0 0 0
0 0 0 0 0 0 0 0 0 0 0 0 0 0 0 0 0 0 0 0 0 0 0 0 0 0 0 0 0 0 0 0 0 0 0 0 0 0
0 0 0 0 0 0 0 0 0 0 0 0 0 0 0 0 0 0 0 0 0 0 0 0 0 0 0 0 0 0 0 0 0 0 0 0 0 0
0 0 0 0 0 0 0 0 0 0 0 0 0 0 0 0 0 0 0 0 0 0 0 0 0 0 0 0 0 0 0 0 0 0 0 0 0 0
0 0 0 0 0 0 0 0 0 0 0 0 0 0 0 0 0 0 0 0 0 0 0 0 0 0 0 0 0 0 0 0 0 0 0 0 0 0
0 0 0 0 0 0 0 0 0 0 0 0 0 0 0 0 0 0 0 0 0 0 0 0 0 0 0 0 0 0 0 0 0 0 0 0 0 0
0 0 0 0 0 0 0 0 0 0 0 0 0 0 0 0 0 0 0 0 0 0 0 0 0 0 0 0 0 0 0 0 0 0 0 0 0 0
0 0 0 0 0 0 0 0 0 0 0 0 0 0 0 0 0 0 0 0 0 0 0 0 0 0 0 0 0 0 0 0 0 0 0 0 0 0
0 0 0 0 0 0 0 0 0 0 0 0 0 0 0 0 0 0 0 0 0 0 0 0 0 0 0 0 0 0 0 0 0 0 0 0 0 0
0 0 0 0 0 0 0 0 0 0 0 0 0 0 0 0 0 0 0 0 0 0 0 0 0 0 0 0 0 0 0 0 0 0 0 0 0 0
0 0 0 0 0 0 0 0 0 0 0 0 0 0 0 0 0 0 0 0 0 0 0 0 0 0 0 0 0 0 0 0 0 0 0 0 0 0
Wind_Speed
5 5 4 4 3 3 3 2 2 3 3 3 1 2 3 4 7 6 5 10 12 12 13 13 13 14 14 15 15 15 15 15 15 14 14 14 15 15
5 5 5 4 3 3 3 3 3 3 3 3 2 2 3 4 6 5 5 9 8 9 10 11 11 12 12 13 13 13 14 13 13 13 12 12 12 11
6 6 7 5 4 3 3 3 3 3 4 3 1 1 3 6 5 5 5 5 4 7 8 8 9 10 10 11 11 11 11 12 11 11 11 10 10 9
7 7 8 6 5 4 3 4 4 4 3 4 2 2 3 6 7 7 5 5 4 7 8 8 8 8 9 9 10 10 10 10 10 9 9 9 9 8
8 8 8 7 7 5 5 5 4 4 3 3 3 2 3 5 7 6 6 5 5 6 8 9 8 9 9 9 9 10 10 10 10 9 9 9 8 8
8 8 8 8 8 7 6 6 5 4 4 4 3 3 5 5 6 6 5 3 4 5 6 7 10 11 11 10 10 10 11 11 11 11 10 10 9 9
8 8 9 11 13 10 7 6 6 5 4 4 4 3 5 7 7 5 6 5 3 3 5 4 5 5 6 8 10 11 11 12 12 12 12 11 11 10
8 8 8 10 12 14 14 12 10 7 6 5 4 5 6 7 6 8 8 7 5 3 4 4 4 5 4 4 8 11 12 12 13 13 12 12 11 11
9 8 9 9 9 7 10 13 12 13 11 7 6 7 7 8 9 10 9 7 4 7 6 4 3 4 3 4 9 10 11 12 12 13 13 12 12 12
9 9 9 8 8 8 7 6 7 8 9 7 6 6 6 7 10 10 10 7 6 5 4 5 3 3 4 4 7 9 10 11 12 13 13 13 12 12
9 9 9 9 12 13 8 7 6 6 7 9 8 7 8 10 9 9 10 10 7 5 3 5 4 4 3 3 3 8 9 10 11 12 13 13 13 11
6 7 12 12 13 13 9 8 8 6 5 6 6 7 7 10 14 12 12 11 9 6 4 5 5 5 4 2 2 2 4 7 9 11 12 12 11 7
5 5 6 12 13 14 12 8 9 7 6 6 6 5 5 6 9 9 8 10 10 5 8 7 6 4 5 4 2 1 2 3 3 5 8 10 9 7
5 4 5 9 11 12 10 9 11 8 4 5 5 5 6 6 7 8 8 7 5 6 11 9 7 7 7 5 4 3 2 2 3 3 3 5 6 6
3 4 5 7 7 7 10 11 10 5 5 5 6 5 5 6 6 6 7 6 6 8 10 6 9 9 6 6 7 5 4 3 3 4 3 3 3 4
2 2 3 4 3 4 5 7 6 5 5 5 5 4 4 5 6 6 6 8 7 5 5 6 10 12 6 5 7 7 5 7 7 4 4 3 3 4
1 1 1 1 2 3 3 4 4 5 5 4 4 4 5 5 5 6 6 8 7 8 7 4 5 5 6 8 7 7 6 4 6 6 5 3 3 4
1 1 2 3 3 4 4 4 4 5 5 4 4 4 5 6 6 5 6 8 8 7 8 7 8 5 4 2 4 9 7 5 5 6 4 4 3 3
1 2 2 3 3 3 4 4 4 5 5 5 4 4 5 5 6 6 7 8 8 8 8 9 9 8 7 6 4 6 9 7 7 6 5 4 5 5
2 3 3 3 3 4 4 4 4 4 4 4 4 5 5 6 6 6 7 8 8 8 7 8 9 9 8 8 6 5 9 9 8 8 6 3 2 2
3 4 4 4 3 4 4 4 4 4 4 5 5 5 6 6 6 6 7 10 9 8 11 10 8 8 6 6 6 4 5 9 10 8 8 5 3 2
4 4 4 4 3 3 4 4 4 4 5 4 5 5 6 6 7 8 8 9 8 8 8 7 7 7 5 6 6 6 7 6 7 10 12 11 8 8
4 4 4 4 4 3 3 4 5 4 5 5 5 6 6 6 6 7 8 8 8 8 8 8 7 5 4 5 6 5 8 7 5 5 3 4 9 12
Wind_Direction
252 256 253 252 244 243 237 219 233 264 265 250 231 195 170 158 165 161 156 177 183 191 195 198 200 201 201 202 204 207 209 211 211 211 211 213 216 219
247 248 252 250 248 242 236 225 216 229 254 256 232 189 160 142 134 132 135 145 160 174 182 187 192 196 198 200 202 204 205 205 204 204 206 207 210 213
256 247 248 244 243 243 238 231 222 214 243 267 244 166 134 138 127 116 113 113 124 146 164 173 180 184 186 190 192 191 192 191 189 190 192 195 198 201
255 250 250 249 241 233 229 232 228 218 218 252 240 174 142 150 138 128 120 111 109 120 134 143 156 165 170 175 176 175 175 173 173 175 177 180 183 188
247 243 244 241 244 235 226 227 225 228 216 225 232 187 148 147 133 119 116 111 107 109 109 114 124 132 140 148 154 156 156 157 157 157 157 158 157 156
246 240 237 231 234 232 227 223 218 217 216 219 220 189 162 151 142 139 136 123 115 108 97 100 107 107 114 123 133 137 139 140 139 138 136 134 133 131
251 242 238 237 236 232 225 214 208 210 209 211 211 193 174 165 161 151 148 135 100 111 113 101 100 95 96 109 119 126 127 128 128 127 126 125 124 121
250 247 245 248 248 243 235 224 207 202 204 207 207 201 192 175 159 155 152 152 147 148 123 101 92 90 74 81 112 119 121 123 124 124 124 123 120 118
241 241 249 247 239 234 238 234 224 216 205 201 208 202 190 177 165 164 168 158 143 152 130 108 88 81 63 83 109 116 121 123 124 123 121 120 118 115
237 233 231 236 234 222 222 224 220 218 212 208 211 210 197 182 175 166 156 129 107 133 123 113 103 82 63 61 101 116 121 124 124 123 121 118 116 113
238 234 226 226 229 220 212 214 219 226 224 215 207 210 203 185 167 150 152 152 148 153 127 116 123 102 73 50 80 114 122 125 126 126 124 121 117 108
240 236 231 225 225 216 206 203 212 216 202 201 204 203 201 186 176 173 167 165 154 151 150 124 134 130 112 75 57 85 105 120 128 130 130 129 125 113
234 232 231 225 222 215 203 200 208 198 190 193 193 190 187 186 183 181 178 170 165 154 156 137 140 133 125 130 134 136 125 124 125 136 141 142 140 132
235 227 224 225 217 210 206 206 203 192 175 179 185 192 191 190 188 183 181 178 158 146 156 146 141 151 135 132 151 151 152 152 145 149 154 155 149 142
234 236 228 227 209 204 207 199 188 181 173 182 190 195 192 186 177 173 166 149 126 139 154 153 144 146 139 142 147 150 155 178 174 161 167 172 167 152
248 245 229 222 202 191 190 191 184 179 176 186 187 186 176 173 178 172 167 158 144 136 147 150 152 150 139 138 147 155 159 165 174 176 165 174 178 173
224 185 172 178 184 184 184 179 179 179 183 181 173 171 175 176 176 173 164 158 157 157 152 140 137 125 127 142 145 156 152 152 161 159 154 171 196 187
199 192 197 192 195 191 184 184 185 188 185 179 176 173 177 177 174 169 167 165 162 160 158 152 142 124 99 70 150 158 161 156 152 155 146 159 195 203
217 233 227 208 204 196 189 186 189 191 182 177 175 179 176 171 170 173 174 169 166 163 162 160 162 157 157 168 190 173 164 158 154 162 169 162 183 198
227 232 236 228 214 204 196 193 194 186 182 183 181 183 176 169 171 175 178 172 164 160 161 168 176 176 175 166 158 172 172 160 161 170 171 156 141 150
236 236 237 233 222 209 203 194 187 184 182 179 183 182 175 169 172 175 174 168 162 165 175 182 178 151 115 114 119 137 168 178 166 165 161 150 143 142
247 241 236 233 224 211 199 190 184 185 183 183 183 180 176 172 172 171 170 169 171 169 170 161 142 143 148 160 158 152 155 164 178 172 167 165 162 178
248 245 233 225 219 206 197 194 190 188 186 183 180 178 175 173 171 168 168 169 167 163 157 153 151 154 162 157 151 145 151 156 153 150 173 204 197 194